Regional Weather Roundup
Issued by NWS

Home | Current Version | Previous Version | Graphics & Text | Print | Product List | Glossary On
Versions: 1 2 3 4 5 6 7 8 9 10 11 12 13 14 15 16 17 18 19 20 21 22 23 24 25 26 27 28 29 30 31 32 33 34 35 36 37 38 39 40 41 42 43 44 45 46 47 48 49 50
000
ASUS43 KLMK 270102
RWRKY
KENTUCKY REGIONAL WEATHER ROUNDUP
NATIONAL WEATHER SERVICE LOUISVILLE KY
800 PM EST FRI DEC 26 2014

NOTE "FAIR" INDICATES FEW OR NO CLOUDS BELOW 12,000 FEET
WITH NO SIGNIFICANT WEATHER AND/OR OBSTRUCTIONS TO VISIBILITY.

KYZ001>023-026-027-061>063-070>075-270200-
WESTERN AND SOUTH CENTRAL KENTUCKY

CITY           SKY/WX    TMP DP  RH WIND       PRES   REMARKS
PADUCAH        CLOUDY    50  39  66 S8        30.14R
HENDERSON      PTCLDY    50  37  62 S10       30.12S
OWENSBORO      CLEAR     49  40  71 S12       30.16S
HOPKINSVILLE   MOCLDY    49  37  64 SE9       30.17F
BOWLING GREEN  PTCLDY    49  34  56 S10       30.21R
GLASGOW        NOT AVBL
$$

KYZ024-025-028>034-038-045-046-053-270200-
NORTH CENTRAL KENTUCKY

CITY           SKY/WX    TMP DP  RH WIND       PRES   REMARKS
LOUISVILLE/SDF CLOUDY    48  35  60 SE7       30.17S
LOUISVILLE/LOU MOCLDY    49  35  58 SE3       30.17F
FORT KNOX      MOCLDY    46  35  66 S9        30.16S
$$

KYZ035>037-039>044-047>052-055>060-089>105-270200-
NORTHEAST KENTUCKY

CITY           SKY/WX    TMP DP  RH WIND       PRES   REMARKS
LEXINGTON      CLOUDY    45  33  63 S7        30.20F
COVINGTON      CLOUDY    48  32  53 S8        30.17S
FRANKFORT      CLOUDY    46  32  58 S5        30.19R
$$

KYZ054-064>069-076>088-106>120-270200-
SOUTHEAST KENTUCKY

CITY           SKY/WX    TMP DP  RH WIND       PRES   REMARKS
JACKSON        MOCLDY    48  24  39 CALM      30.20F
LONDON         CLOUDY    48  28  46 SE6       30.21F
SOMERSET       NOT AVBL
MIDDLESBORO    NOT AVBL
MONTICELLO     CLOUDY    48  36  63 S6        30.25R
$$




USA.gov is the U.S. government's official web portal to all federal, state and local government web resources and services.